Location: Clyde
(45.1830°S, 169.3170°E)
Time: 18:11:30
(UTC+12:00)

Cosmos 2221 - Pass Details

Date: 14 May 2021
Orbit: 592 x 615 km, 82.5° (Epoch: 16 June)

Event Time Altitude Azimuth Distance (km) Brightness Sun altitude
Rises 18:22:21 0° 185° (S) 2,876 5.9 -10.3°
Reaches altitude 10° 18:24:37 10° 181° (S) 1,965 5.0 -10.7°
Maximum altitude 18:28:54 57° 101° (ESE) 719 2.5 -11.4°
Drops below altitude 10° 18:33:07 10° 22° (NNE) 1,940 5.0 -12.1°
Sets 18:35:21 0° 18° (NNE) 2,836 5.9 -12.5°
